Tiempo atmosférico en la estación meteorológica de Puntagorda, Santa Cruz de Tenerife (684 m.)



Fecha
DESCASC
Temp. máxima en grados centígrados (hora)
DESCASC
Temp. mínima en grados centígrados (hora)
DESCASC
Temp. media en grados centígrados
DESCASC
Racha de viento máxima en m/sg (hora)
DESCASC
Velocidad máxima media en intervalos de 10 minutos(hora)
DESCASC
Precipitaciones diarias en mm
DESCASC
Precipitaciones de 00:00 a 06:00 en mm
DESCASC
Precipitaciones de 06:00 a 12:00 en mm
DESCASC
Precipitaciones de 12:00 a 18:00 en mm
DESCASC
Precipitaciones de 18:00 a 24:00 en mm
DESCASC
05-04-2020 20 (16:00) 13.7 (01:50) 16.8 7.5 (23:40) 5.28 (21:00) 0.2 0.2 0 0 0
04-04-2020 17.6 (14:00) 12.3 (05:10) 15 9.17 (15:20) 6.67 (15:10) 1.4 0 1.4 0 0
03-04-2020 15.8 (18:30) 12.1 (03:00) 14 18.33 (18:10) 10 (18:30) 16.2 0 0 14 2.2
02-04-2020 16.5 (12:40) 9.8 (00:00) 13.2 7.22 (18:40) 5 (18:40) 0 0 0 0 0
01-04-2020 17 (14:10) 9.8 (00:00) 13.4 6.67 (14:10) 4.17 (14:00) 0 0 0 0 0
31-03-2020 17 (17:20) 10.5 (00:00) 13.8 7.22 (11:30) 5 (11:00) 0.4 0.4 0 0 0
30-03-2020 17.5 (16:20) 11.4 (00:00) 14.4 6.67 (15:00) 4.17 (14:50) 0.8 0 0 0 0.8
29-03-2020 15.3 (13:50) 9.3 (00:00) 12.3 7.5 (14:40) 4.72 (14:40) 0 0 0 0 0
28-03-2020 16.2 (15:10) 8.7 (00:00) 12.5 8.06 (01:30) 5 (03:30) 0 0 0 0 0
27-03-2020 14.9 (12:20) 9.6 (00:00) 12.3 13.33 (19:20) 7.22 (16:30) 4.8 0 0 4.8 0
26-03-2020 16 (17:10) 10.1 (00:00) 13.1 8.33 (15:50) 5.83 (16:20) 0 0 0 0 0
25-03-2020 15 (17:10) 11.1 (00:00) 13.1 8.61 (01:50) 5.28 (19:30) 0 0 0 0 0
24-03-2020 17.3 (15:20) 10.2 (00:00) 13.7 13.89 (14:40) 8.61 (16:20) 2 0.6 1.4 0 0
23-03-2020 15.6 (16:40) 9.2 (00:00) 12.4 19.17 (02:10) 10.83 (03:30) 16.6 13 3.2 0.4 0
22-03-2020 14 (11:20) 8.9 (04:30) 11.4 17.22 (22:30) 9.17 (22:40) 9.4 1.4 0.4 7 0.6
21-03-2020 15.2 (14:50) 9.4 (00:00) 12.3 13.61 (16:00) 8.61 (16:00) 0 0 0 0 0
20-03-2020 17.3 (12:40) 11 (00:00) 14.1 10.56 (16:30) 7.22 (16:30) 0.2 0.2 0 0 0
19-03-2020 18 (14:10) 11.1 (00:00) 14.6 13.33 (10:20) 6.94 (13:10) 1.4 0.4 0.4 0 0.6
18-03-2020 17.2 (14:40) 9.2 (00:00) 13.2 15.28 (21:00) 8.33 (18:30) 0 0 0 0 0
17-03-2020 16.9 (14:30) 9.1 (00:00) 13 11.39 (21:50) 6.11 (22:50) 0 0 0 0 0
16-03-2020 18.6 (14:20) 10.2 (00:00) 14.4 12.78 (00:40) 7.22 (01:10) 0 0 0 0 0
15-03-2020 17.1 (13:20) 9.9 (00:00) 13.5 15.28 (18:00) 8.33 (18:00) 1.4 1.2 0.2 0 0
14-03-2020 16.9 (16:50) 10.7 (00:00) 13.8 11.67 (21:30) 7.22 (20:40) 0 0 0 0 0
13-03-2020 22.4 (09:50) 13.5 (23:59) 17.9 6.11 (17:30) 3.61 (17:40) 0 0 0 0 0
12-03-2020 25.9 (15:00) 17.8 (00:00) 21.8 7.22 (17:20) 4.17 (03:00) 0 0 0 0 0
11-03-2020 25.5 (15:40) 16.1 (00:00) 20.8 6.39 (16:00) 3.61 (16:10) 0 0 0 0 0
10-03-2020 26.2 (15:20) 16.1 (00:00) 21.2 8.06 (21:30) 4.72 (18:00) 0 0 0 0 0
09-03-2020 25.4 (13:40) 17.2 (00:00) 21.3 5 (08:50) 3.89 (06:40) 0 0 0 0 0

Gráficas

Temp. máximas Temp. mínimas Temp. medias Precipitaciones Rachas de viento máximas Velocidades máximas media en intervalos de 10 minutos

Datos horarios

Fecha y hora oficial Temperatura (ºC) Velocidad del viento (km/h) Dirección del viento Racha (km/h) Dirección de racha Precipitación (mm) Presión (hPa) Tendencia (hPa) Humedad (%)
2020-04-07 23:00:00 15.6 12 Nordeste 32 Nordeste 0 -- -- 32
2020-04-07 22:00:00 14.4 20 Nordeste 32 Nordeste 0 -- -- 86
2020-04-07 21:00:00 14.8 12 Nordeste 24 Norte 0 -- -- 69
2020-04-07 20:00:00 15.6 15 Norte 21 Norte 0 -- -- 88
2020-04-07 19:00:00 16.8 6 Noroeste 12 Sur 0 -- -- 86
2020-04-07 18:00:00 18 6 Sudoeste 15 Oeste 0 -- -- 82
2020-04-07 17:00:00 17.1 5 Noroeste 17 Oeste 0 -- -- 85
2020-04-07 16:00:00 19.1 7 Sudoeste 17 Sudoeste 0 -- -- 78
2020-04-07 15:00:00 18.6 10 Sur 17 Sudoeste 0 -- -- 79
2020-04-07 14:00:00 17.7 9 Sudoeste 19 Sur 0 -- -- 83
2020-04-07 13:00:00 17.3 11 Sudoeste 18 Sur 0 -- -- 86
2020-04-07 12:00:00 16.6 10 Sur 16 Sudoeste 0 -- -- 85
2020-04-07 11:00:00 15.8 10 Sudoeste 13 Sur 0 -- -- 87
2020-04-07 10:00:00 14.6 4 Sudoeste 8 Sudoeste 0 -- -- 87
2020-04-07 09:00:00 12.3 5 Norte 9 Norte 0 -- -- 83
2020-04-07 08:00:00 12.4 0 Calma 5 Sudeste 0 -- -- 86
2020-04-07 07:00:00 12.6 3 Sur 14 Nordeste 0 -- -- 80
2020-04-07 06:00:00 12.9 7 Nordeste 14 Nordeste 0 -- -- 73
2020-04-07 05:00:00 14 2 Sur 27 Nordeste 0 -- -- 74
2020-04-07 04:00:00 13.1 15 Nordeste 26 Nordeste 0 -- -- 77
2020-04-07 03:00:00 13 6 Este 21 Nordeste 0 -- -- 70
2020-04-07 02:00:00 13.3 6 Nordeste 9 Nordeste 0 -- -- 76
2020-04-07 01:00:00 13.7 3 Sur 5 Sudoeste 0 -- -- 83
2020-04-07 00:00:00 14.1 0 Calma 6 Nordeste 0 -- -- 83
2020-04-06 23:00:00 14.3 2 Nordeste 5 Nordeste 0 -- -- 83
2020-04-06 22:00:00 14.6 0 Calma 12 Nordeste 0 -- -- 84
2020-04-06 21:00:00 15.6 6 Nordeste 13 Nordeste 0 -- -- 88
2020-04-06 20:00:00 18.7 5 Nordeste 17 Nordeste 0 -- -- 77
2020-04-06 19:00:00 19.4 9 Norte 19 Norte 0 -- -- 75
2020-04-06 18:00:00 18.6 9 Noroeste 17 Noroeste 0 -- -- 80
2020-04-06 17:00:00 17.5 6 Noroeste 14 Oeste 0 -- -- 84
2020-04-06 16:00:00 18.7 9 Noroeste 21 Norte 0 -- -- 81
2020-04-06 15:00:00 17.8 8 Noroeste 14 Oeste 0 -- -- 82
2020-04-06 14:00:00 17.4 5 Sudoeste 13 Oeste 0 -- -- 86
2020-04-06 13:00:00 16.1 4 Sudoeste 10 Sudoeste 0 -- -- 92
2020-04-06 12:00:00 16.4 6 Oeste 12 Oeste 0 -- -- 89
2020-04-06 11:00:00 17 5 Noroeste 12 Norte 0 -- -- 86
2020-04-06 10:00:00 15.8 6 Noroeste 9 Este 0 -- -- 80
2020-04-06 09:00:00 13.9 10 Nordeste 15 Nordeste 0 -- -- 87
2020-04-06 08:00:00 13.5 2 Sudeste 15 Nordeste 0 -- -- 78
2020-04-06 07:00:00 13.9 7 Nordeste 13 Nordeste 0 -- -- 79
2020-04-06 06:00:00 13.5 8 Nordeste 14 Nordeste 0 -- -- 79
2020-04-06 05:00:00 13.2 8 Nordeste 12 Nordeste 0 -- -- 86
2020-04-06 04:00:00 13.1 4 Este 11 Nordeste 0 -- -- 89
2020-04-06 03:00:00 13.7 3 Este 14 Nordeste 0 -- -- 91
2020-04-06 02:00:00 13.9 9 Nordeste 16 Este 0 -- -- 91
2020-04-06 01:00:00 14.3 9 Nordeste 26 Nordeste 0 -- -- 89
2020-04-06 00:00:00 14.5 15 Nordeste 27 Nordeste 0 -- -- 89
2020-04-05 23:00:00 14.7 14 Nordeste 25 Nordeste 0 -- -- 92
2020-04-05 22:00:00 15.2 12 Nordeste 25 Nordeste 0 -- -- 92
2020-04-05 21:00:00 15.8 19 Norte 26 Norte 0 -- -- 92
2020-04-05 20:00:00 16.8 15 Norte 23 Norte 0 -- -- 89
2020-04-05 19:00:00 17 14 Norte 22 Norte 0 -- -- 87
2020-04-05 18:00:00 18.5 12 Norte 19 Noroeste 0 -- -- 78
2020-04-05 17:00:00 19.3 8 Norte 16 Noroeste 0 -- -- 73
2020-04-05 16:00:00 20 7 Noroeste 20 Noroeste 0 -- -- 68
2020-04-05 15:00:00 19.1 6 Oeste 16 Oeste 0 -- -- 65
2020-04-05 14:00:00 18 9 Sudoeste 15 Oeste 0 -- -- 81
2020-04-05 13:00:00 17 6 Sudoeste 15 Sur 0 -- -- 86
2020-04-05 12:00:00 17.3 8 Sur 17 Sudoeste 0 -- -- 90
2020-04-05 11:00:00 16.3 8 Sur 13 Sudoeste 0 -- -- 94
2020-04-05 10:00:00 15.7 10 Sur 14 Sur 0 -- -- 93
2020-04-05 09:00:00 15.1 7 Sur 18 Sudeste 0 -- -- 90
2020-04-05 08:00:00 15 5 Sur 10 Sudeste 0 -- -- 92
2020-04-05 07:00:00 15 0 Calma 8 Sur 0 -- -- 93
2020-04-05 06:00:00 15 3 Sudeste 9 Sur 0.2 -- -- 94
2020-04-05 05:00:00 14.9 4 Sur 9 Sudeste 0 -- -- 93
2020-04-05 04:00:00 15.1 3 Sur 9 Este 0 -- -- 93
2020-04-05 03:00:00 14.8 4 Sur 13 Noroeste 0 -- -- 89
2020-04-05 02:00:00 13.9 2 Norte 7 Este 0 -- -- 84
2020-04-05 01:00:00 14.2 4 Este 12 Sur 0 -- -- 75
2020-04-05 00:00:00 13.9 6 Sudeste 15 Sur 0 -- -- 88
2020-04-04 23:00:00 14.2 7 Sur 13 Sur 0 -- -- 88
2020-04-04 22:00:00 14.4 9 Sur 16 Sur 0 -- -- 89
2020-04-04 21:00:00 14.6 8 Sur 17 Sur 0 -- -- 93
2020-04-04 20:00:00 15.7 14 Sudoeste 24 Sur 0 -- -- 88
2020-04-04 19:00:00 16.8 16 Sudoeste 24 Sur 0 -- -- 81
2020-04-04 18:00:00 16.3 15 Sur 28 Sur 0 -- -- 86
2020-04-04 17:00:00 16.5 19 Sudoeste 31 Sudoeste 0 -- -- 83
2020-04-04 16:00:00 17.3 22 Sur 33 Sudoeste 0 -- -- 79
2020-04-04 15:00:00 17.5 23 Sur 30 Sudoeste 0 -- -- 80
2020-04-04 14:00:00 17.6 18 Sur 29 Sudoeste 0 -- -- 83
2020-04-04 13:00:00 16.1 16 Sudoeste 26 Sudoeste 0 -- -- 94
2020-04-04 12:00:00 15.4 19 Sur 27 Sur 0 -- -- 94
2020-04-04 11:00:00 15 17 Sur 30 Sur 0.2 -- -- 94
2020-04-04 10:00:00 14.4 15 Sur 26 Sur 0 -- -- 95
2020-04-04 09:00:00 13.6 14 Sur 28 Sur 0 -- -- 97
2020-04-04 08:00:00 13.2 10 Sur 20 Sur 0 -- -- 98
2020-04-04 07:00:00 13 5 Sur 21 Sudoeste 1.2 -- -- 98
2020-04-04 06:00:00 12.8 7 Sur 19 Sur 0 -- -- 97
2020-04-04 05:00:00 12.4 6 Sudeste 19 Sur 0 -- -- 97
2020-04-04 04:00:00 13.4 13 Sur 23 Sur 0 -- -- 98
2020-04-04 03:00:00 13.8 12 Sur 25 Sudoeste 0 -- -- 98
2020-04-04 02:00:00 14.2 12 Sudoeste 27 Sur 0 -- -- 98
2020-04-04 01:00:00 13.3 8 Sur 17 Sudeste 0 -- -- 98
2020-04-04 00:00:00 13.6 7 Sur 21 Sur 0 -- -- 98
2020-04-03 23:00:00 14.7 17 Sudoeste 29 Sur 0 -- -- 98
2020-04-03 22:00:00 15.2 13 Sudoeste 39 Sudoeste 0 -- -- 98
2020-04-03 21:00:00 15.1 19 Sur 31 Sudoeste 0 -- -- 98
2020-04-03 20:00:00 15.3 12 Sudoeste 41 Sur 0 -- -- 97
2020-04-03 19:00:00 15.8 22 Sudoeste 66 Sur 2.2 -- -- 97
2020-04-03 18:00:00 15.5 33 Sur 62 Sur 9.8 -- -- 97
2020-04-03 17:00:00 15.3 31 Sur 49 Sur 2.8 -- -- 97
2020-04-03 16:00:00 15.1 28 Sur 47 Sur 0.6 -- -- 96
2020-04-03 15:00:00 14.8 33 Sur 49 Sur 0.2 -- -- 96
2020-04-03 14:00:00 14.8 26 Sur 43 Sur 0.6 -- -- 94
2020-04-03 13:00:00 14.7 30 Sur 46 Sur 0 -- -- 90
2020-04-03 12:00:00 15.5 32 Sur 46 Sur 0 -- -- 82
2020-04-03 11:00:00 14 22 Sur 37 Sur 0 -- -- 84
2020-04-03 10:00:00 14.2 25 Sur 41 Sur 0 -- -- 81
2020-04-03 09:00:00 13.2 24 Sur 37 Sur 0 -- -- 78
2020-04-03 08:00:00 13 19 Sur 36 Sur 0 -- -- 76
2020-04-03 07:00:00 13.1 23 Sur 35 Sur 0 -- -- 78
2020-04-03 06:00:00 12.5 22 Sur 34 Sur 0 -- -- 85
2020-04-03 05:00:00 12.2 15 Sur 35 Sur 0 -- -- 85
2020-04-03 04:00:00 12.2 21 Sur 30 Sur 0 -- -- 86
2020-04-03 03:00:00 12.1 13 Sur 31 Sur 0 -- -- 88
2020-04-03 02:00:00 12.3 13 Sur 27 Sur 0 -- -- 90
2020-04-03 01:00:00 12.7 15 Sur 23 Sur 0 -- -- 88
2020-04-03 00:00:00 12.8 12 Sur 22 Sur 0 -- -- 89
2020-04-02 23:00:00 13.1 11 Sudoeste 16 Sur 0 -- -- 94
2020-04-02 22:00:00 13 8 Sudoeste 20 Sur 0 -- -- 94
2020-04-02 21:00:00 13.1 16 Sur 26 Sudoeste 0 -- -- 95
2020-04-02 20:00:00 13.2 17 Sur 26 Sur 0 -- -- 94
2020-04-02 19:00:00 13.5 16 Sur 26 Sudoeste 0 -- -- 93
2020-04-02 18:00:00 14.1 16 Sur 24 Sur 0 -- -- 89
2020-04-02 17:00:00 15.6 8 Sudoeste 21 Oeste 0 -- -- 79
2020-04-02 16:00:00 16.2 8 Sudoeste 17 Sudoeste 0 -- -- 77
2020-04-02 15:00:00 15.1 10 Sudoeste 18 Sudoeste 0 -- -- 83
2020-04-02 14:00:00 14.8 7 Sudoeste 19 Sudoeste 0 -- -- 85
2020-04-02 13:00:00 15.9 12 Sudoeste 21 Sur 0 -- -- 77
2020-04-02 12:00:00 15.5 12 Sur 18 Sur 0 -- -- 78
2020-04-02 11:00:00 14.4 11 Sur 17 Sudoeste 0 -- -- 82
2020-04-02 10:00:00 13.1 2 Sudoeste 7 Sudoeste 0 -- -- 84
2020-04-02 09:00:00 10.7 4 Sudeste 7 Sudeste 0 -- -- 85
2020-04-02 08:00:00 10.5 3 Nordeste 6 Norte 0 -- -- 80
2020-04-02 07:00:00 9.8 5 Este 10 Nordeste 0 -- -- 74
2020-04-02 06:00:00 9.9 6 Nordeste 9 Este 0 -- -- 84
2020-04-02 05:00:00 10.6 7 Este 11 Este 0 -- -- 87
2020-04-02 04:00:00 10.8 10 Este 12 Este 0 -- -- 87
2020-04-02 03:00:00 10.8 4 Sudeste 13 Sudeste 0 -- -- 88
2020-04-02 02:00:00 10.8 8 Sudeste 11 Sudeste 0 -- -- 90
2020-04-02 01:00:00 11 5 Sudeste 8 Sudeste 0 -- -- 88
2020-04-02 00:00:00 11.3 5 Sudeste 8 Sudeste 0 -- -- 88
2020-04-01 23:00:00 11.5 2 Este 6 Este 0 -- -- 86
2020-04-01 22:00:00 12.7 2 Sur 7 Sudoeste 0 -- -- 86
2020-04-01 21:00:00 13.7 5 Sudoeste 9 Oeste 0 -- -- 85
2020-04-01 20:00:00 14.5 5 Noroeste 14 Oeste 0 -- -- 81
2020-04-01 19:00:00 15.8 6 Sudoeste 17 Sudoeste 0 -- -- 75
2020-04-01 18:00:00 15.8 8 Sudoeste 15 Sur 0 -- -- 75
2020-04-01 17:00:00 15.4 5 Oeste 15 Sudoeste 0 -- -- 77
2020-04-01 16:00:00 16.6 8 Sudoeste 21 Sur 0 -- -- 72
2020-04-01 15:00:00 16.6 13 Sur 24 Sur 0 -- -- 72
2020-04-01 14:00:00 16.7 15 Sur 22 Sudoeste 0 -- -- 65
2020-04-01 13:00:00 16.2 13 Sudoeste 23 Sudeste 0 -- -- 74
2020-04-01 12:00:00 15.3 8 Sudoeste 15 Sudoeste 0 -- -- 79
2020-04-01 11:00:00 14.1 5 Sudoeste 12 Sur 0 -- -- 84
2020-04-01 10:00:00 12.5 4 Sur 8 Sur 0 -- -- 88
2020-04-01 09:00:00 10.4 4 Sudeste 6 Sudeste 0 -- -- 87
2020-04-01 08:00:00 9.8 4 Este 11 Sur 0 -- -- 87
2020-04-01 07:00:00 10.1 7 Sudeste 10 Sur 0 -- -- 88
2020-04-01 06:00:00 10.4 5 Sur 9 Sur 0 -- -- 88
2020-04-01 05:00:00 10.5 5 Este 12 Nordeste 0 -- -- 80
2020-04-01 04:00:00 10.6 9 Este 12 Este 0 -- -- 80
2020-04-01 03:00:00 11 3 Este 15 Este 0 -- -- 79
2020-04-01 02:00:00 11.3 9 Nordeste 15 Nordeste 0 -- -- 77
2020-04-01 01:00:00 11.4 10 Nordeste 14 Nordeste 0 -- -- 79
2020-04-01 00:00:00 11.6 10 Nordeste 21 Nordeste 0 -- -- 74
2020-03-31 23:00:00 11.6 13 Nordeste 22 Nordeste 0 -- -- 77
2020-03-31 22:00:00 12 14 Nordeste 19 Nordeste 0 -- -- 88
2020-03-31 21:00:00 12.7 9 Nordeste 24 Nordeste 0 -- -- 87
2020-03-31 20:00:00 14.8 13 Norte 21 Norte 0 -- -- 79
2020-03-31 19:00:00 15.9 13 Norte 21 Norte 0 -- -- 74
2020-03-31 18:00:00 16.7 10 Norte 24 Norte 0 -- -- 72
2020-03-31 17:00:00 16.8 12 Noroeste 24 Noroeste 0 -- -- 69
2020-03-31 16:00:00 16.4 11 Noroeste 22 Noroeste 0 -- -- 69
2020-03-31 15:00:00 16.7 10 Noroeste 20 Noroeste 0 -- -- 67
2020-03-31 14:00:00 16.5 8 Noroeste 23 Norte 0 -- -- 69
2020-03-31 13:00:00 15.9 11 Norte 22 Norte 0 -- -- 68
2020-03-31 12:00:00 15.8 13 Norte 26 Norte 0 -- -- 69
2020-03-31 11:00:00 14.4 18 Norte 26 Norte 0 -- -- 75
2020-03-31 10:00:00 12.8 10 Nordeste 18 Nordeste 0 -- -- 81
2020-03-31 09:00:00 11.4 10 Nordeste 19 Nordeste 0 -- -- 83
2020-03-31 08:00:00 11.1 15 Nordeste 22 Nordeste 0 -- -- 82
2020-03-31 07:00:00 10.6 9 Nordeste 11 Nordeste 0 -- -- 85
2020-03-31 06:00:00 10.8 7 Nordeste 13 Este 0 -- -- 83
2020-03-31 05:00:00 10.9 4 Nordeste 11 Nordeste 0 -- -- 82
2020-03-31 04:00:00 11.6 8 Nordeste 21 Nordeste 0 -- -- 86
2020-03-31 03:00:00 12.4 6 Norte 13 Norte 0 -- -- 86
2020-03-31 02:00:00 12.2 10 Este 13 Este 0 -- -- 93
2020-03-31 01:00:00 12.8 7 Nordeste 13 Norte 0.4 -- -- 94
2020-03-31 00:00:00 13.8 5 Norte 10 Noroeste 0.8 -- -- 93
2020-03-30 23:00:00 14 3 Sudeste 12 Oeste 0 -- -- 90
2020-03-30 22:00:00 14.4 3 Sudeste 8 Sudeste 0 -- -- 78
2020-03-30 21:00:00 14.5 0 Calma 9 Noroeste 0 -- -- 76
2020-03-30 20:00:00 16.4 4 Oeste 19 Noroeste 0 -- -- 67
2020-03-30 19:00:00 15.9 10 Noroeste 19 Oeste 0 -- -- 70
2020-03-30 18:00:00 16.1 9 Sudoeste 18 Oeste 0 -- -- 78
2020-03-30 17:00:00 16.3 9 Sudoeste 19 Sudoeste 0 -- -- 79
2020-03-30 16:00:00 17 13 Sudoeste 23 Sur 0 -- -- 77
2020-03-30 15:00:00 16.1 13 Sudoeste 24 Sur 0 -- -- 79
2020-03-30 14:00:00 15.6 9 Sur 21 Sur 0 -- -- 82
2020-03-30 13:00:00 15.8 14 Sudoeste 21 Sudoeste 0 -- -- 80
2020-03-30 12:00:00 14.1 12 Sudoeste 19 Sudoeste 0 -- -- 90
2020-03-30 11:00:00 14.5 10 Sur 18 Sudoeste 0 -- -- 86
2020-03-30 10:00:00 13.1 8 Sudoeste 15 Sur 0 -- -- 92
2020-03-30 09:00:00 12.6 8 Sur 13 Sur 0 -- -- 94
2020-03-30 08:00:00 12.3 0 Calma 5 Este 0 -- -- 93
2020-03-30 07:00:00 12.2 0 Calma 4 Oeste 0 -- -- 94
2020-03-30 06:00:00 12 0 Calma 6 Sudoeste 0 -- -- 94
2020-03-30 05:00:00 11.4 0 Calma 4 Noroeste 0 -- -- 92
2020-03-30 04:00:00 11.9 3 Norte 9 Este 0 -- -- 91
2020-03-30 03:00:00 12.2 3 Nordeste 7 Noroeste 0 -- -- 91
2020-03-30 02:00:00 12.3 0 Calma 9 Sudoeste 0 -- -- 89
2020-03-30 01:00:00 12.3 4 Sur 13 Sudoeste 0 -- -- 86
2020-03-30 00:00:00 12.4 5 Sudoeste 15 Sur 0 -- -- 86
2020-03-29 23:00:00 12.6 5 Sudoeste 10 Sudoeste 0 -- -- 86
2020-03-29 22:00:00 12.6 5 Sudoeste 13 Sudoeste 0 -- -- 84
2020-03-29 21:00:00 12.8 5 Sudoeste 12 Sudoeste 0 -- -- 84
2020-03-29 20:00:00 13.5 8 Sudoeste 18 Sudoeste 0 -- -- 80
2020-03-29 19:00:00 14 10 Sudoeste 20 Sudoeste 0 -- -- 80
2020-03-29 18:00:00 14.7 10 Sudoeste 25 Sudoeste 0 -- -- 81
2020-03-29 17:00:00 15.2 10 Sudoeste 21 Sudoeste 0 -- -- 74
2020-03-29 16:00:00 14.1 13 Sudoeste 22 Sur 0 -- -- 83
2020-03-29 15:00:00 14 13 Sudoeste 27 Sur 0 -- -- 85
2020-03-29 14:00:00 15.1 13 Sur 22 Sur 0 -- -- 78
2020-03-29 13:00:00 14 6 Sudoeste 13 Oeste 0 -- -- 80
2020-03-29 12:00:00 13.3 6 Sudoeste 13 Oeste 0 -- -- 85
2020-03-29 11:00:00 12.7 4 Oeste 8 Noroeste 0 -- -- 86
2020-03-29 10:00:00 12 5 Norte 9 Nordeste 0 -- -- 79
2020-03-29 09:00:00 9.9 9 Este 11 Este 0 -- -- 75
2020-03-29 08:00:00 9.3 8 Este 11 Nordeste 0 -- -- 74
2020-03-29 07:00:00 9.7 7 Nordeste 15 Nordeste 0 -- -- 79
2020-03-29 06:00:00 9.8 9 Nordeste 13 Nordeste 0 -- -- 83
2020-03-29 05:00:00 9.9 8 Nordeste 14 Nordeste 0 -- -- 83
2020-03-29 04:00:00 9.8 8 Nordeste 13 Este 0 -- -- 80
2020-03-29 00:00:00 10.1 8 Nordeste 12 Nordeste 0 -- -- 77
2020-03-28 23:00:00 10.4 8 Nordeste 10 Nordeste 0 -- -- 84
2020-03-28 22:00:00 10.5 3 Nordeste 7 Nordeste 0 -- -- 84
2020-03-28 21:00:00 11.1 3 Nordeste 6 Este 0 -- -- 82
2020-03-28 20:00:00 12 4 Norte 10 Noroeste 0 -- -- 81
2020-03-28 19:00:00 14.3 5 Norte 16 Noroeste 0 -- -- 70
2020-03-28 18:00:00 15.1 10 Noroeste 19 Noroeste 0 -- -- 68
2020-03-28 17:00:00 15.5 9 Norte 22 Noroeste 0 -- -- 67
2020-03-28 16:00:00 15.7 10 Norte 22 Norte 0 -- -- 60
2020-03-28 15:00:00 15.9 6 Noroeste 22 Norte 0 -- -- 60
2020-03-28 14:00:00 15.6 10 Norte 22 Noroeste 0 -- -- 65
2020-03-28 13:00:00 13.9 7 Norte 20 Norte 0 -- -- 71
2020-03-28 12:00:00 14.6 12 Nordeste 25 Norte 0 -- -- 65
2020-03-28 11:00:00 13.7 13 Norte 20 Norte 0 -- -- 73
2020-03-28 10:00:00 12.6 10 Norte 20 Norte 0 -- -- 74
2020-03-28 09:00:00 11 5 Nordeste 15 Este 0 -- -- 72
2020-03-28 08:00:00 9.1 11 Este 21 Nordeste 0 -- -- 73
2020-03-28 07:00:00 9 12 Nordeste 21 Este 0 -- -- 74
2020-03-28 06:00:00 8.7 13 Nordeste 21 Nordeste 0 -- -- 82
2020-03-28 05:00:00 8.8 12 Nordeste 22 Norte 0 -- -- 76
2020-03-28 04:00:00 9.4 15 Nordeste 27 Nordeste 0 -- -- 76
2020-03-28 03:00:00 9.1 17 Nordeste 26 Nordeste 0 -- -- 76
2020-03-28 02:00:00 9.4 9 Nordeste 29 Norte 0 -- -- 76
2020-03-28 01:00:00 9.6 12 Nordeste 27 Nordeste 0 -- -- 80
2020-03-28 00:00:00 9.6 13 Nordeste 34 Nordeste 0 -- -- 84
2020-03-27 23:00:00 10.1 15 Nordeste 35 Nordeste 0 -- -- 69
2020-03-27 22:00:00 10.2 18 Nordeste 37 Nordeste 0 -- -- 72
2020-03-27 21:00:00 9.9 18 Nordeste 40 Nordeste 0 -- -- 72
2020-03-27 20:00:00 10.4 24 Nordeste 48 Nordeste 0 -- -- 67
2020-03-27 19:00:00 11.9 21 Nordeste 41 Norte 0 -- -- 62
2020-03-27 18:00:00 12.3 23 Nordeste 39 Norte 0.2 -- -- 70
2020-03-27 17:00:00 11.3 24 Norte 41 Norte 2.8 -- -- 95
2020-03-27 16:00:00 12.6 17 Norte 32 Norte 0.4 -- -- 88
2020-03-27 15:00:00 12.9 11 Norte 22 Norte 1.2 -- -- 90
2020-03-27 14:00:00 14.3 10 Nordeste 21 Norte 0.2 -- -- 77
2020-03-27 13:00:00 14 12 Norte 24 Noroeste 0 -- -- 79
2020-03-27 12:00:00 14.6 9 Norte 18 Noroeste 0 -- -- 78
2020-03-27 11:00:00 13.2 12 Norte 20 Norte 0 -- -- 83
2020-03-27 10:00:00 13.1 12 Norte 20 Norte 0 -- -- 78
2020-03-27 09:00:00 11.9 12 Norte 17 Norte 0 -- -- 84
2020-03-27 08:00:00 11 6 Nordeste 18 Nordeste 0 -- -- 76
2020-03-27 07:00:00 10.5 9 Nordeste 17 Nordeste 0 -- -- 77
2020-03-27 06:00:00 10.4 11 Nordeste 17 Este 0 -- -- 79
2020-03-27 05:00:00 10.4 8 Nordeste 15 Este 0 -- -- 82
2020-03-27 04:00:00 10.8 10 Nordeste 17 Nordeste 0 -- -- 84
2020-03-27 03:00:00 11.1 10 Nordeste 19 Este 0 -- -- 79
2020-03-27 02:00:00 11.1 12 Nordeste 18 Nordeste 0 -- -- 78
2020-03-27 01:00:00 10.7 9 Nordeste 15 Nordeste 0 -- -- 77
2020-03-27 00:00:00 11.2 5 Nordeste 11 Nordeste 0 -- -- 74
2020-03-26 23:00:00 11.7 2 Este 16 Nordeste 0 -- -- 70
2020-03-26 22:00:00 11 12 Este 17 Este 0 -- -- 75
2020-03-26 21:00:00 11.5 3 Este 21 Nordeste 0 -- -- 75
2020-03-26 20:00:00 11.8 12 Nordeste 23 Nordeste 0 -- -- 84
2020-03-26 19:00:00 12.9 12 Nordeste 22 Norte 0 -- -- 81
2020-03-26 18:00:00 14.3 9 Nordeste 18 Nordeste 0 -- -- 78
2020-03-26 17:00:00 15.5 6 Norte 30 Norte 0 -- -- 73
2020-03-26 16:00:00 15.4 18 Norte 30 Norte 0 -- -- 71
2020-03-26 15:00:00 15.3 13 Norte 24 Noroeste 0 -- -- 73
2020-03-26 14:00:00 14.4 6 Sudoeste 16 Sudoeste 0 -- -- 75
2020-03-26 13:00:00 13.4 6 Sudoeste 12 Sudoeste 0 -- -- 82
2020-03-26 12:00:00 13.1 4 Oeste 12 Oeste 0 -- -- 84
2020-03-26 11:00:00 13.4 5 Oeste 12 Oeste 0 -- -- 81
2020-03-26 10:00:00 13.2 4 Sudoeste 10 Oeste 0 -- -- 81
2020-03-26 09:00:00 12.7 5 Noroeste 8 Noroeste 0 -- -- 77
2020-03-26 08:00:00 10.5 5 Sudeste 8 Sur 0 -- -- 81
2020-03-26 07:00:00 10.3 2 Sur 12 Sudeste 0 -- -- 74
2020-03-26 06:00:00 10.4 5 Sudeste 7 Sudeste 0 -- -- 79
2020-03-26 05:00:00 10.9 3 Sudeste 10 Este 0 -- -- 76
2020-03-26 04:00:00 10.9 3 Nordeste 11 Sur 0 -- -- 78
2020-03-26 03:00:00 11.7 6 Sur 10 Sur 0 -- -- 83
2020-03-26 02:00:00 11.3 0 Calma 5 Este 0 -- -- 76
2020-03-26 01:00:00 11.6 2 Este 5 Este 0 -- -- 76
2020-03-26 00:00:00 12.2 0 Calma 0 Calma 0 -- -- 75
2020-03-25 23:00:00 12.3 0 Calma 2 Norte 0 -- -- 73
2020-03-25 22:00:00 12.4 0 Calma 6 Sudeste 0 -- -- 74
2020-03-25 21:00:00 12.9 0 Calma 8 Sudoeste 0 -- -- 70
2020-03-25 20:00:00 13.2 4 Este 30 Este 0 -- -- 65
2020-03-25 19:00:00 13.3 9 Nordeste 21 Nordeste 0 -- -- 72
2020-03-25 18:00:00 14.3 10 Norte 17 Norte 0 -- -- 59
2020-03-25 17:00:00 14.9 5 Norte 11 Noroeste 0 -- -- 66
2020-03-25 16:00:00 14.2 5 Oeste 15 Oeste 0 -- -- 68
2020-03-25 15:00:00 14.4 6 Sudoeste 12 Sudoeste 0 -- -- 64
2020-03-25 14:00:00 14.5 3 Sur 13 Nordeste 0 -- -- 61
2020-03-25 13:00:00 14.6 5 Oeste 13 Sudoeste 0 -- -- 72
2020-03-25 12:00:00 13.7 5 Sudoeste 10 Sudoeste 0 -- -- 74
2020-03-25 11:00:00 13.3 8 Sudoeste 13 Sudoeste 0 -- -- 76
2020-03-25 10:00:00 13.4 9 Sur 17 Sur 0 -- -- 77
2020-03-25 09:00:00 13 6 Sudoeste 10 Sudoeste 0 -- -- 74
2020-03-25 08:00:00 12 2 Sur 7 Sudeste 0 -- -- 74
2020-03-25 07:00:00 11.4 3 Este 20 Este 0 -- -- 72
2020-03-25 06:00:00 11.4 13 Nordeste 26 Nordeste 0 -- -- 63
2020-03-25 05:00:00 11.1 16 Nordeste 29 Nordeste 0 -- -- 75
2020-03-25 04:00:00 11.4 11 Norte 29 Nordeste 0 -- -- 79
2020-03-25 03:00:00 11.2 14 Nordeste 28 Nordeste 0 -- -- 81
2020-03-25 02:00:00 12.2 9 Nordeste 31 Nordeste 0 -- -- 62
2020-03-25 01:00:00 12.3 12 Nordeste 28 Nordeste 0 -- -- 64
2020-03-25 00:00:00 11.9 14 Nordeste 30 Nordeste 0 -- -- 66
2020-03-24 23:00:00 11.4 11 Nordeste 26 Norte 0 -- -- 83
2020-03-24 22:00:00 11.9 14 Nordeste 33 Este 0 -- -- 70
2020-03-24 21:00:00 12.1 14 Nordeste 33 Nordeste 0 -- -- 67
2020-03-24 20:00:00 12.3 17 Nordeste 34 Este 0 -- -- 62
2020-03-24 19:00:00 13.4 23 Nordeste 42 Norte 0 -- -- 74
2020-03-24 18:00:00 14.8 29 Norte 47 Norte 0 -- -- 62
2020-03-24 17:00:00 15.5 26 Nordeste 47 Norte 0 -- -- 61
2020-03-24 16:00:00 16.2 28 Norte 41 Norte 0 -- -- 60
2020-03-24 15:00:00 16.9 22 Nordeste 50 Norte 0 -- -- 50
2020-03-24 14:00:00 16.8 19 Nordeste 40 Norte 0 -- -- 51
2020-03-24 13:00:00 15.9 22 Norte 41 Norte 0 -- -- 52
2020-03-24 12:00:00 15.4 18 Nordeste 34 Nordeste 0 -- -- 60
2020-03-24 11:00:00 14.3 23 Norte 35 Nordeste 0 -- -- 77
2020-03-24 10:00:00 12.7 17 Nordeste 49 Nordeste 0.2 -- -- 87
2020-03-24 09:00:00 11.1 14 Nordeste 30 Nordeste 1 -- -- 94
2020-03-24 08:00:00 11 16 Nordeste 28 Nordeste 0.2 -- -- 93
2020-03-24 07:00:00 10.4 15 Nordeste 26 Nordeste 0 -- -- 84
2020-03-24 06:00:00 10.2 12 Nordeste 27 Nordeste 0.2 -- -- 88
2020-03-24 05:00:00 10.9 14 Nordeste 27 Nordeste 0.4 -- -- 92
2020-03-24 04:00:00 10.9 15 Nordeste 26 Norte 0 -- -- 90
2020-03-24 03:00:00 11.1 10 Nordeste 22 Norte 0 -- -- 80
2020-03-24 02:00:00 11.1 7 Nordeste 26 Nordeste 0 -- -- 76
2020-03-24 01:00:00 11.8 12 Nordeste 26 Nordeste 0 -- -- 78
2020-03-24 00:00:00 11.8 10 Nordeste 25 Nordeste 0 -- -- 78
2020-03-23 23:00:00 11.4 9 Nordeste 43 Norte 0 -- -- 85
2020-03-23 22:00:00 11.9 16 Nordeste 43 Nordeste 0 -- -- 80
2020-03-23 21:00:00 11.6 21 Nordeste 45 Nordeste 0 -- -- 75
2020-03-23 20:00:00 11.2 22 Nordeste 40 Nordeste 0 -- -- 64
2020-03-23 19:00:00 12.3 24 Nordeste 50 Nordeste 0 -- -- 76
2020-03-23 18:00:00 13.9 19 Nordeste 52 Nordeste 0 -- -- 73
2020-03-23 17:00:00 15.4 19 Nordeste 57 Nordeste 0 -- -- 63
2020-03-23 16:00:00 15.4 22 Nordeste 58 Este 0 -- -- 61
2020-03-23 15:00:00 14.8 27 Nordeste 58 Norte 0.2 -- -- 67
2020-03-23 14:00:00 14.1 28 Nordeste 63 Norte 0 -- -- 75
2020-03-23 13:00:00 13.1 27 Nordeste 64 Norte 0.2 -- -- 83
2020-03-23 12:00:00 13.2 31 Nordeste 58 Nordeste 0 -- -- 79
2020-03-23 11:00:00 12.2 31 Nordeste 60 Nordeste 0 -- -- 84
2020-03-23 10:00:00 11.1 35 Nordeste 60 Norte 0 -- -- 90
2020-03-23 09:00:00 10.8 29 Norte 60 Norte 1.6 -- -- 94
2020-03-23 08:00:00 10.5 36 Norte 62 Nordeste 1.6 -- -- 95
2020-03-23 07:00:00 10.5 31 Norte 58 Norte 0 -- -- 94
2020-03-23 06:00:00 10.4 36 Norte 62 Nordeste 0.4 -- -- 93
2020-03-23 05:00:00 10.1 38 Norte 62 Norte 0 -- -- 94
2020-03-23 04:00:00 10 33 Norte 62 Nordeste 0 -- -- 97
2020-03-23 03:00:00 9.6 33 Norte 69 Norte 5.4 -- -- 96
2020-03-23 02:00:00 9.9 30 Norte 55 Nordeste 1 -- -- 96
2020-03-23 01:00:00 9.2 27 Nordeste 56 Norte 6.2 -- -- 94
2020-03-23 00:00:00 10.1 24 Nordeste 53 Norte 0 -- -- 93
2020-03-22 23:00:00 10.1 30 Norte 62 Norte 0.2 -- -- 89
2020-03-22 22:00:00 10.7 24 Norte 53 Norte 0.4 -- -- 93
2020-03-22 21:00:00 11 26 Norte 48 Norte 0 -- -- 87
2020-03-22 20:00:00 10.8 22 Norte 40 Norte 0 -- -- 93
2020-03-22 19:00:00 11.3 23 Norte 51 Norte 0 -- -- 82
2020-03-22 18:00:00 12 20 Norte 48 Norte 0 -- -- 80
2020-03-22 17:00:00 12.3 24 Norte 44 Norte 0 -- -- 78
2020-03-22 16:00:00 12.4 19 Nordeste 50 Norte 0.4 -- -- 92
2020-03-22 15:00:00 11.6 22 Norte 43 Norte 1.2 -- -- 92
2020-03-22 14:00:00 10.7 22 Norte 39 Norte 5.4 -- -- 94
2020-03-22 13:00:00 13.3 12 Noroeste 22 Norte 0 -- -- 83
2020-03-22 12:00:00 13.4 12 Norte 26 Norte 0 -- -- 80
2020-03-22 11:00:00 13.2 15 Norte 29 Nordeste 0 -- -- 78
2020-03-22 10:00:00 12.3 13 Nordeste 32 Nordeste 0.2 -- -- 79
2020-03-22 09:00:00 10.3 18 Norte 35 Norte 0.2 -- -- 90
2020-03-22 08:00:00 9.9 18 Nordeste 36 Norte 0 -- -- 86
2020-03-22 07:00:00 9.5 19 Nordeste 36 Norte 0 -- -- 83
2020-03-22 06:00:00 9.5 22 Nordeste 37 Norte 0.2 -- -- 91
2020-03-22 05:00:00 9 16 Nordeste 34 Norte 0.2 -- -- 90
2020-03-22 04:00:00 9.5 23 Norte 37 Norte 1 -- -- 94
2020-03-22 03:00:00 10.1 18 Nordeste 35 Norte 0 -- -- 77
2020-03-22 02:00:00 9.8 12 Nordeste 32 Este 0 -- -- 82
2020-03-22 01:00:00 10.6 18 Nordeste 35 Norte 0 -- -- 76
2020-03-22 00:00:00 10.5 14 Nordeste 32 Norte 0 -- -- 73
2020-03-21 23:00:00 11.2 12 Nordeste 36 Nordeste 0 -- -- 67
2020-03-21 22:00:00 11.4 14 Nordeste 37 Nordeste 0 -- -- 65
2020-03-21 21:00:00 10.7 17 Nordeste 42 Nordeste 0 -- -- 72
2020-03-21 20:00:00 10.9 15 Nordeste 32 Norte 0 -- -- 70
2020-03-21 19:00:00 12.3 19 Nordeste 41 Nordeste 0 -- -- 63
2020-03-21 18:00:00 13.5 26 Norte 44 Norte 0 -- -- 60
2020-03-21 17:00:00 14.1 30 Norte 46 Norte 0 -- -- 63
2020-03-21 16:00:00 14.7 31 Norte 49 Norte 0 -- -- 62
2020-03-21 15:00:00 15.1 26 Norte 46 Norte 0 -- -- 58
2020-03-21 14:00:00 14.6 22 Nordeste 45 Norte 0 -- -- 62
2020-03-21 13:00:00 14.6 23 Nordeste 47 Norte 0 -- -- 59
2020-03-21 12:00:00 14 20 Norte 37 Norte 0 -- -- 56
2020-03-21 11:00:00 13.4 18 Nordeste 33 Nordeste 0 -- -- 56
2020-03-21 10:00:00 12.3 14 Nordeste 27 Nordeste 0 -- -- 65
2020-03-21 09:00:00 11.7 7 Nordeste 22 Nordeste 0 -- -- 66
2020-03-21 08:00:00 10.2 14 Este 22 Este 0 -- -- 64
2020-03-21 07:00:00 10.2 13 Este 21 Este 0 -- -- 65
2020-03-21 06:00:00 10.3 14 Este 20 Este 0 -- -- 66
2020-03-21 05:00:00 9.8 5 Este 14 Este 0 -- -- 80
2020-03-21 04:00:00 10.2 3 Nordeste 6 Este 0 -- -- 83
2020-03-21 03:00:00 10.3 0 Calma 10 Nordeste 0 -- -- 81
2020-03-21 02:00:00 10.1 0 Calma 7 Sudeste 0 -- -- 84
2020-03-21 01:00:00 10.4 4 Sudeste 7 Sudeste 0 -- -- 83
2020-03-21 00:00:00 11 2 Sudeste 7 Este 0 -- -- 80
2020-03-20 23:00:00 12.1 2 Sudeste 8 Sur 0 -- -- 79
2020-03-20 22:00:00 12.4 5 Sur 12 Sur 0 -- -- 87
2020-03-20 21:00:00 11.6 4 Sur 16 Este 0 -- -- 81
2020-03-20 20:00:00 11.6 9 Nordeste 27 Nordeste 0 -- -- 69
2020-03-20 19:00:00 13.8 14 Nordeste 28 Norte 0 -- -- 69
2020-03-20 18:00:00 15.1 19 Norte 33 Norte 0 -- -- 66
2020-03-20 17:00:00 15.7 19 Norte 38 Norte 0 -- -- 67
2020-03-20 16:00:00 16.2 21 Norte 37 Norte 0 -- -- 69
2020-03-20 15:00:00 14.7 15 Norte 36 Nordeste 0 -- -- 76
2020-03-20 14:00:00 16.7 9 Noroeste 24 Nordeste 0 -- -- 65
2020-03-20 13:00:00 16.6 9 Sudoeste 18 Sur 0 -- -- 66
2020-03-20 12:00:00 16 8 Sudoeste 28 Norte 0 -- -- 71
2020-03-20 11:00:00 14.4 5 Noroeste 26 Nordeste 0 -- -- 70
2020-03-20 10:00:00 13.4 7 Sudeste 21 Nordeste 0 -- -- 83
2020-03-20 09:00:00 13.2 4 Sur 13 Este 0 -- -- 85
2020-03-20 08:00:00 12.6 11 Este 31 Nordeste 0 -- -- 70
2020-03-20 07:00:00 12.3 5 Nordeste 23 Nordeste 0 -- -- 71
2020-03-20 06:00:00 12.7 15 Nordeste 33 Este 0 -- -- 70
2020-03-20 05:00:00 12.3 2 Noroeste 29 Este 0 -- -- 75
2020-03-20 04:00:00 11.9 14 Este 32 Nordeste 0 -- -- 74
2020-03-20 03:00:00 12 12 Este 28 Nordeste 0 -- -- 82
2020-03-20 02:00:00 11.9 9 Este 26 Nordeste 0 -- -- 79
2020-03-20 01:00:00 12 16 Nordeste 30 Nordeste 0.2 -- -- 89
2020-03-20 00:00:00 12 14 Nordeste 36 Nordeste 0.2 -- -- 92
2020-03-19 23:00:00 12.5 19 Nordeste 38 Norte 0.4 -- -- 92
2020-03-19 22:00:00 13.5 15 Nordeste 35 Nordeste 0 -- -- 73
2020-03-19 21:00:00 12.8 13 Nordeste 29 Nordeste 0 -- -- 86
2020-03-19 20:00:00 13.2 16 Nordeste 33 Norte 0 -- -- 77
2020-03-19 19:00:00 14.9 20 Nordeste 40 Nordeste 0 -- -- 61
2020-03-19 18:00:00 16.9 17 Nordeste 42 Nordeste 0 -- -- 56
2020-03-19 17:00:00 15.9 18 Nordeste 41 Nordeste 0 -- -- 63
2020-03-19 16:00:00 15.9 21 Nordeste 41 Norte 0 -- -- 69
2020-03-19 15:00:00 17.5 23 Nordeste 46 Este 0 -- -- 66
2020-03-19 14:00:00 17.9 23 Nordeste 44 Norte 0 -- -- 59
2020-03-19 13:00:00 16 19 Nordeste 42 Norte 0 -- -- 79
2020-03-19 12:00:00 14.6 17 Nordeste 40 Norte 0.2 -- -- 79
2020-03-19 11:00:00 13.7 18 Nordeste 48 Norte 0 -- -- 87
2020-03-19 10:00:00 13.4 18 Nordeste 43 Nordeste 0 -- -- 80
2020-03-19 09:00:00 12.4 15 Nordeste 37 Norte 0.2 -- -- 87
2020-03-19 08:00:00 12.4 14 Nordeste 40 Nordeste 0 -- -- 79
2020-03-19 07:00:00 12.2 19 Nordeste 40 Nordeste 0 -- -- 67
2020-03-19 06:00:00 11.6 20 Nordeste 39 Este 0.2 -- -- 77
2020-03-19 05:00:00 11.5 18 Nordeste 41 Norte 0 -- -- 91
2020-03-19 04:00:00 11.6 22 Nordeste 42 Nordeste 0.2 -- -- 89
2020-03-19 03:00:00 11.7 15 Nordeste 40 Norte 0 -- -- 76
2020-03-19 02:00:00 11.5 17 Nordeste 39 Nordeste 0 -- -- 80
2020-03-19 01:00:00 11.2 15 Nordeste 36 Norte 0 -- -- 74
2020-03-19 00:00:00 11.2 15 Nordeste 42 Nordeste 0 -- -- 76
2020-03-18 23:00:00 11.2 24 Norte 43 Norte 0 -- -- 80
2020-03-18 22:00:00 11.5 22 Nordeste 45 Norte 0 -- -- 83
2020-03-18 21:00:00 11.6 27 Nordeste 55 Norte 0 -- -- 85
2020-03-18 20:00:00 12.2 24 Norte 43 Nordeste 0 -- -- 79
2020-03-18 19:00:00 12.7 27 Norte 46 Norte 0 -- -- 76
2020-03-18 18:00:00 16 17 Nordeste 41 Nordeste 0 -- -- 50
2020-03-18 17:00:00 16.6 22 Nordeste 45 Nordeste 0 -- -- 41
2020-03-18 16:00:00 16.8 23 Nordeste 42 Norte 0 -- -- 44
2020-03-18 15:00:00 16.8 21 Norte 40 Norte 0 -- -- 52
2020-03-18 14:00:00 16.7 17 Norte 38 Norte 0 -- -- 46
2020-03-18 13:00:00 16.8 14 Norte 48 Este 0 -- -- 43
2020-03-18 12:00:00 15.9 22 Nordeste 49 Nordeste 0 -- -- 47
2020-03-18 11:00:00 14.7 23 Nordeste 53 Nordeste 0 -- -- 48
2020-03-18 10:00:00 13.6 19 Nordeste 43 Nordeste 0 -- -- 57
2020-03-18 09:00:00 11.5 8 Sudeste 32 Nordeste 0 -- -- 74
2020-03-18 08:00:00 10.1 9 Este 21 Este 0 -- -- 77
2020-03-18 07:00:00 9.4 5 Sudeste 14 Nordeste 0 -- -- 84
2020-03-18 06:00:00 9.8 6 Este 14 Nordeste 0 -- -- 78
2020-03-18 05:00:00 10.4 11 Este 26 Este 0 -- -- 82
2020-03-18 04:00:00 9.9 7 Nordeste 17 Este 0 -- -- 79
2020-03-18 03:00:00 10.6 10 Sudeste 28 Sudoeste 0 -- -- 75
2020-03-18 02:00:00 9.8 4 Sudeste 18 Nordeste 0 -- -- 75
2020-03-18 01:00:00 9.8 9 Nordeste 23 Este 0 -- -- 80
2020-03-18 00:00:00 10.3 10 Nordeste 27 Nordeste 0 -- -- 79
2020-03-17 23:00:00 10.3 15 Nordeste 39 Nordeste 0 -- -- 78
2020-03-17 22:00:00 10.6 14 Este 41 Nordeste 0 -- -- 82
2020-03-17 21:00:00 11.3 19 Nordeste 36 Nordeste 0 -- -- 78
2020-03-17 20:00:00 11.9 11 Nordeste 31 Nordeste 0 -- -- 71
2020-03-17 19:00:00 13.7 8 Este 22 Norte 0 -- -- 70
2020-03-17 18:00:00 14 5 Sudoeste 22 Norte 0 -- -- 72
2020-03-17 17:00:00 16 10 Sudoeste 21 Sudoeste 0 -- -- 63
2020-03-17 16:00:00 15.3 6 Sudoeste 21 Sudoeste 0 -- -- 64
2020-03-17 15:00:00 16.9 12 Sudoeste 24 Sudoeste 0 -- -- 55
2020-03-17 14:00:00 15.1 8 Oeste 30 Sur 0 -- -- 62
2020-03-17 13:00:00 15.7 9 Oeste 20 Oeste 0 -- -- 57
2020-03-17 12:00:00 15.5 11 Sudoeste 22 Sur 0 -- -- 58
2020-03-17 11:00:00 14.7 7 Sudoeste 16 Sur 0 -- -- 62
2020-03-17 10:00:00 13.7 8 Sur 16 Sur 0 -- -- 67
2020-03-17 09:00:00 11.3 8 Nordeste 16 Nordeste 0 -- -- 74
2020-03-17 08:00:00 9.7 4 Nordeste 13 Nordeste 0 -- -- 75
2020-03-17 07:00:00 9.1 8 Este 10 Sudeste 0 -- -- 78
2020-03-17 06:00:00 9.3 8 Este 12 Este 0 -- -- 76
2020-03-17 05:00:00 9.5 3 Este 12 Nordeste 0 -- -- 77
2020-03-17 04:00:00 9.7 8 Nordeste 13 Nordeste 0 -- -- 72
2020-03-17 03:00:00 9.9 5 Este 9 Este 0 -- -- 76
2020-03-17 02:00:00 10 5 Sudeste 7 Este 0 -- -- 76
2020-03-17 01:00:00 10.6 2 Nordeste 19 Nordeste 0 -- -- 73
2020-03-17 00:00:00 10.5 10 Nordeste 20 Nordeste 0 -- -- 74
2020-03-16 23:00:00 10.7 7 Nordeste 22 Nordeste 0 -- -- 73
2020-03-16 22:00:00 11.1 9 Nordeste 20 Norte 0 -- -- 73
2020-03-16 21:00:00 12.1 8 Nordeste 22 Norte 0 -- -- 72
2020-03-16 20:00:00 12.1 12 Nordeste 31 Norte 0 -- -- 70
2020-03-16 19:00:00 13.7 17 Nordeste 38 Norte 0 -- -- 68
2020-03-16 18:00:00 16.2 11 Nordeste 37 Norte 0 -- -- 63
2020-03-16 17:00:00 16.6 8 Sudoeste 20 Sur 0 -- -- 55
2020-03-16 16:00:00 17.6 10 Sur 24 Sudoeste 0 -- -- 55
2020-03-16 15:00:00 18.2 13 Sudoeste 24 Sudoeste 0 -- -- 52
2020-03-16 14:00:00 18.3 14 Sur 23 Sudoeste 0 -- -- 49
2020-03-16 13:00:00 17.4 14 Sudoeste 23 Sudoeste 0 -- -- 47
2020-03-16 12:00:00 16.7 12 Sudoeste 22 Sur 0 -- -- 53
2020-03-16 11:00:00 15.2 8 Oeste 18 Sudoeste 0 -- -- 60
2020-03-16 10:00:00 14.5 8 Sudoeste 15 Sudoeste 0 -- -- 58
2020-03-16 09:00:00 12.6 4 Sur 12 Este 0 -- -- 63
2020-03-16 08:00:00 10.3 4 Este 23 Nordeste 0 -- -- 70
2020-03-16 07:00:00 11.1 13 Este 38 Nordeste 0 -- -- 65
2020-03-16 06:00:00 11.1 10 Este 30 Nordeste 0 -- -- 71
2020-03-16 05:00:00 10.6 12 Este 23 Este 0 -- -- 66
2020-03-16 04:00:00 10.2 6 Este 12 Sudeste 0 -- -- 72
2020-03-16 03:00:00 11.2 7 Este 17 Este 0 -- -- 68
2020-03-16 02:00:00 12.8 9 Este 45 Este 0 -- -- 62
2020-03-16 01:00:00 12.3 21 Este 46 Nordeste 0 -- -- 57
2020-03-16 00:00:00 11.7 25 Nordeste 48 Nordeste 0 -- -- 71
2020-03-15 23:00:00 12.5 19 Nordeste 42 Nordeste 0 -- -- 66
2020-03-15 22:00:00 12.8 16 Nordeste 44 Nordeste 0 -- -- 62
2020-03-15 21:00:00 12.5 17 Nordeste 39 Nordeste 0 -- -- 64
2020-03-15 20:00:00 12.9 15 Este 41 Nordeste 0 -- -- 58
2020-03-15 19:00:00 15.3 8 Este 41 Nordeste 0 -- -- 57
2020-03-15 18:00:00 15.7 30 Nordeste 55 Nordeste 0 -- -- 49
2020-03-15 17:00:00 16.3 26 Nordeste 45 Nordeste 0 -- -- 47
2020-03-15 16:00:00 16.2 14 Nordeste 45 Este 0 -- -- 51
2020-03-15 15:00:00 14.5 23 Nordeste 45 Nordeste 0 -- -- 71
2020-03-15 14:00:00 16.2 13 Nordeste 39 Nordeste 0 -- -- 57
2020-03-15 13:00:00 16.6 17 Nordeste 44 Este 0 -- -- 48
2020-03-15 12:00:00 15.3 21 Nordeste 46 Nordeste 0 -- -- 56
2020-03-15 11:00:00 13.8 15 Nordeste 32 Nordeste 0 -- -- 72
2020-03-15 10:00:00 11.3 14 Nordeste 26 Norte 0.2 -- -- 88
2020-03-15 09:00:00 11.8 16 Norte 28 Este 0 -- -- 76
2020-03-15 08:00:00 10.9 11 Nordeste 26 Este 0 -- -- 70
2020-03-15 07:00:00 10.4 15 Nordeste 36 Nordeste 0 -- -- 78
2020-03-15 06:00:00 10.3 19 Nordeste 37 Nordeste 0.2 -- -- 82
2020-03-15 05:00:00 10.5 15 Nordeste 36 Nordeste 0 -- -- 82
2020-03-15 04:00:00 10.4 18 Nordeste 35 Este 0 -- -- 77
2020-03-15 03:00:00 10.2 18 Nordeste 37 Nordeste 1 -- -- 90
2020-03-15 02:00:00 11.8 15 Norte 32 Nordeste 0 -- -- 68
2020-03-15 01:00:00 12.6 17 Nordeste 41 Este 0 -- -- 53
2020-03-15 00:00:00 12.8 19 Nordeste 35 Nordeste 0 -- -- 53
2020-03-14 23:00:00 12.9 21 Nordeste 39 Nordeste 0 -- -- 58
2020-03-14 22:00:00 12.6 14 Nordeste 42 Nordeste 0 -- -- 62
2020-03-14 21:00:00 12.7 24 Nordeste 41 Nordeste 0 -- -- 58
2020-03-14 20:00:00 13.6 14 Nordeste 28 Nordeste 0 -- -- 55
2020-03-14 19:00:00 15.7 4 Sudoeste 28 Sur 0 -- -- 62
2020-03-14 18:00:00 16.4 11 Sudoeste 20 Sudoeste 0 -- -- 69
2020-03-14 17:00:00 16.7 10 Sudoeste 20 Sur 0 -- -- 68
2020-03-14 16:00:00 15.3 8 Oeste 23 Sur 0 -- -- 74
2020-03-14 15:00:00 15.3 9 Sudoeste 23 Sudoeste 0 -- -- 76
2020-03-14 14:00:00 15.6 9 Sudoeste 17 Sudoeste 0 -- -- 78
2020-03-14 13:00:00 15.8 8 Sudoeste 16 Sur 0 -- -- 77
2020-03-14 12:00:00 15.4 8 Sudoeste 15 Sudoeste 0 -- -- 78
2020-03-14 11:00:00 15.4 5 Sudoeste 13 Sudoeste 0 -- -- 75
2020-03-14 10:00:00 14.8 8 Sudoeste 13 Sudoeste 0 -- -- 74
2020-03-14 09:00:00 13.5 6 Sur 10 Sur 0 -- -- 69
2020-03-14 08:00:00 11.3 3 Sudeste 8 Sudeste 0 -- -- 72
2020-03-14 07:00:00 11 2 Sudeste 6 Sudeste 0 -- -- 74
2020-03-14 06:00:00 11.6 3 Sudeste 5 Sudeste 0 -- -- 72
2020-03-14 05:00:00 12.1 3 Nordeste 11 Este 0 -- -- 63
2020-03-14 04:00:00 11.9 0 Calma 6 Sur 0 -- -- 63
2020-03-14 03:00:00 11.6 4 Sudeste 8 Sudeste 0 -- -- 77
2020-03-14 02:00:00 12.5 6 Sur 10 Sur 0 -- -- 80
2020-03-14 01:00:00 13.1 4 Sur 8 Sur 0 -- -- 77
2020-03-14 00:00:00 13.5 2 Sudeste 5 Norte 0 -- -- 71
2020-03-13 23:00:00 14.4 2 Sur 8 Nordeste 0 -- -- 71
2020-03-13 22:00:00 14.7 3 Sudeste 8 Nordeste 0 -- -- 60
2020-03-13 21:00:00 14.8 3 Norte 8 Nordeste 0 -- -- 66
2020-03-13 20:00:00 15.3 0 Calma 4 Noroeste 0 -- -- 75
2020-03-13 19:00:00 15.6 3 Sur 14 Sur 0 -- -- 82
2020-03-13 18:00:00 18.2 7 Sur 22 Sur 0 -- -- 62
2020-03-13 17:00:00 18.7 4 Sur 12 Sur 0 -- -- 58
2020-03-13 16:00:00 18.7 7 Sur 14 Sudoeste 0 -- -- 74
2020-03-13 15:00:00 18.5 6 Sudoeste 13 Sudoeste 0 -- -- 76
2020-03-13 14:00:00 19.8 8 Sudoeste 15 Sudoeste 0 -- -- 67
2020-03-13 13:00:00 20.4 9 Sudoeste 14 Sur 0 -- -- 61
2020-03-13 12:00:00 21.3 4 Sur 8 Oeste 0 -- -- 49
2020-03-13 11:00:00 21.3 4 Sur 8 Sudoeste 0 -- -- 39
2020-03-13 10:00:00 22.4 3 Oeste 6 Oeste 0 -- -- 23
2020-03-13 09:00:00 21.2 0 Calma 8 Sudeste 0 -- -- 12
2020-03-13 08:00:00 19.3 6 Sudeste 9 Este 0 -- -- 13
2020-03-13 07:00:00 19.1 3 Este 9 Sudeste 0 -- -- 13
2020-03-13 06:00:00 18.7 8 Este 12 Sudeste 0 -- -- 14
2020-03-13 05:00:00 18.4 8 Sudeste 12 Sudeste 0 -- -- 14
2020-03-13 04:00:00 18.8 6 Sudeste 11 Sudeste 0 -- -- 14
2020-03-13 03:00:00 19.2 4 Este 8 Este 0 -- -- 13
2020-03-13 02:00:00 19 6 Este 11 Sudeste 0 -- -- 13
2020-03-13 01:00:00 18.7 9 Este 12 Este 0 -- -- 13
2020-03-13 00:00:00 18.9 8 Este 10 Este 0 -- -- 13
2020-03-12 23:00:00 19.2 3 Este 10 Este 0 -- -- 14
2020-03-12 22:00:00 19.5 6 Este 15 Este 0 -- -- 13
2020-03-12 21:00:00 20.4 12 Este 18 Nordeste 0 -- -- 12
2020-03-12 20:00:00 20.7 11 Nordeste 17 Nordeste 0 -- -- 12
2020-03-12 19:00:00 22.3 9 Nordeste 18 Norte 0 -- -- 12
2020-03-12 18:00:00 24.2 10 Norte 26 Norte 0 -- -- 11
2020-03-12 17:00:00 24.9 12 Noroeste 21 Noroeste 0 -- -- 13
2020-03-12 16:00:00 25.6 11 Noroeste 21 Noroeste 0 -- -- 10
2020-03-12 15:00:00 25.9 9 Noroeste 20 Noroeste 0 -- -- 10
2020-03-12 14:00:00 24.9 11 Oeste 19 Oeste 0 -- -- 13
2020-03-12 13:00:00 24 5 Sudoeste 11 Sudoeste 0 -- -- 19
2020-03-12 12:00:00 22.8 6 Sudoeste 10 Sudoeste 0 -- -- 34
2020-03-12 11:00:00 24.1 5 Sudoeste 10 Oeste 0 -- -- 10
2020-03-12 10:00:00 23.1 4 Sudoeste 8 Sur 0 -- -- 12
2020-03-12 09:00:00 20.5 3 Este 8 Sudeste 0 -- -- 11
2020-03-12 08:00:00 19 5 Sudeste 9 Sudeste 0 -- -- 12
2020-03-12 07:00:00 18.9 5 Nordeste 9 Este 0 -- -- 10
2020-03-12 06:00:00 18.9 0 Calma 6 Este 0 -- -- 10
2020-03-12 05:00:00 18.5 4 Este 11 Este 0 -- -- 10
2020-03-12 04:00:00 18.3 9 Este 17 Nordeste 0 -- -- 10
2020-03-12 03:00:00 18.9 15 Este 19 Este 0 -- -- 10
2020-03-12 02:00:00 18.3 3 Nordeste 12 Sudeste 0 -- -- 11
2020-03-12 01:00:00 17.9 5 Sudeste 10 Nordeste 0 -- -- 13
2020-03-12 00:00:00 18.5 8 Nordeste 13 Nordeste 0 -- -- 12
2020-03-11 23:00:00 18 10 Nordeste 13 Este 0 -- -- 14
2020-03-11 22:00:00 17.9 6 Este 12 Nordeste 0 -- -- 15
2020-03-11 21:00:00 18.2 8 Nordeste 10 Este 0 -- -- 21
2020-03-11 20:00:00 19.3 0 Calma 6 Norte 0 -- -- 25
2020-03-11 19:00:00 22.6 0 Calma 15 Sudoeste 0 -- -- 15
2020-03-11 18:00:00 23.5 10 Sur 18 Sudoeste 0 -- -- 17
2020-03-11 17:00:00 24.4 11 Sudoeste 23 Sur 0 -- -- 12
2020-03-11 16:00:00 25.1 13 Sudoeste 23 Sur 0 -- -- 11
2020-03-11 15:00:00 25.3 10 Oeste 17 Noroeste 0 -- -- 8
2020-03-11 14:00:00 24.6 7 Oeste 14 Oeste 0 -- -- 12
2020-03-11 13:00:00 24.2 8 Oeste 15 Sur 0 -- -- 8
2020-03-11 12:00:00 23.9 7 Sudoeste 12 Sur 0 -- -- 11
2020-03-11 11:00:00 23.2 5 Oeste 8 Oeste 0 -- -- 13
2020-03-11 10:00:00 22.4 5 Sudoeste 9 Sudoeste 0 -- -- 9
2020-03-11 09:00:00 20 5 Nordeste 12 Nordeste 0 -- -- 10
2020-03-11 08:00:00 18.5 5 Nordeste 13 Nordeste 0 -- -- 10
2020-03-11 07:00:00 17.4 6 Nordeste 10 Nordeste 0 -- -- 10
2020-03-11 06:00:00 17 7 Sudeste 19 Sudeste 0 -- -- 11
2020-03-11 05:00:00 16.4 11 Sur 23 Sudoeste 0 -- -- 23
2020-03-11 04:00:00 16.2 7 Sudeste 16 Sur 0 -- -- 18
2020-03-11 03:00:00 17.1 4 Sudeste 11 Sudeste 0 -- -- 14
2020-03-11 02:00:00 17.4 10 Sudeste 13 Sudeste 0 -- -- 14
2020-03-11 01:00:00 17.5 3 Este 9 Sudeste 0 -- -- 16
2020-03-11 00:00:00 17 5 Sudeste 10 Sudeste 0 -- -- 18
2020-03-10 23:00:00 18.2 4 Sudeste 15 Este 0 -- -- 18
2020-03-10 22:00:00 20.1 9 Nordeste 29 Nordeste 0 -- -- 14
2020-03-10 21:00:00 20.6 13 Nordeste 27 Nordeste 0 -- -- 14
2020-03-10 20:00:00 20.8 15 Nordeste 27 Nordeste 0 -- -- 14
2020-03-10 19:00:00 22.3 11 Nordeste 26 Norte 0 -- -- 13
2020-03-10 18:00:00 23.5 17 Norte 26 Norte 0 -- -- 14
2020-03-10 17:00:00 25.1 11 Noroeste 23 Noroeste 0 -- -- 22
2020-03-10 16:00:00 25.8 13 Noroeste 26 Oeste 0 -- -- 20
2020-03-10 15:00:00 25.5 12 Noroeste 19 Norte 0 -- -- 12
2020-03-10 14:00:00 25.7 8 Oeste 18 Sudoeste 0 -- -- 14
2020-03-10 13:00:00 25.2 8 Sudoeste 15 Oeste 0 -- -- 12
2020-03-10 12:00:00 24.7 8 Sudoeste 14 Oeste 0 -- -- 13
2020-03-10 11:00:00 24.4 5 Oeste 10 Oeste 0 -- -- 12
2020-03-10 10:00:00 23.2 4 Oeste 12 Sudoeste 0 -- -- 13
2020-03-10 09:00:00 21.7 7 Sur 21 Sudeste 0 -- -- 14
2020-03-10 08:00:00 18.1 10 Sudeste 17 Sudeste 0 -- -- 16
2020-03-10 07:00:00 17.7 5 Este 11 Este 0 -- -- 16
2020-03-10 06:00:00 17.4 6 Este 17 Este 0 -- -- 16
2020-03-10 05:00:00 16.8 8 Nordeste 13 Sudeste 0 -- -- 18
2020-03-10 04:00:00 16.2 9 Sudeste 13 Sudeste 0 -- -- 19
2020-03-10 03:00:00 17.2 3 Este 12 Nordeste 0 -- -- 20
2020-03-10 02:00:00 17.4 8 Nordeste 10 Nordeste 0 -- -- 20
2020-03-10 01:00:00 17.6 4 Nordeste 8 Nordeste 0 -- -- 20
2020-03-10 00:00:00 17.7 4 Nordeste 6 Este 0 -- -- 21
2020-03-09 23:00:00 17.3 5 Sudeste 14 Sudeste 0 -- -- 21
2020-03-09 22:00:00 17.3 8 Este 13 Sudeste 0 -- -- 21
2020-03-09 21:00:00 18.1 3 Sudeste 11 Nordeste 0 -- -- 22
2020-03-09 20:00:00 18.7 5 Nordeste 11 Este 0 -- -- 25
2020-03-09 19:00:00 21.8 3 Oeste 13 Norte 0 -- -- 25
2020-03-09 18:00:00 23.3 5 Sudoeste 16 Oeste 0 -- -- 26
2020-03-09 17:00:00 24.2 8 Noroeste 16 Noroeste 0 -- -- 23
2020-03-09 16:00:00 24.2 8 Sudoeste 15 Oeste 0 -- -- 26
2020-03-09 15:00:00 24.2 8 Oeste 16 Oeste 0 -- -- 28
2020-03-09 14:00:00 25.1 8 Sudoeste 15 Norte 0 -- -- 31
2020-03-09 13:00:00 25.3 8 Noroeste 15 Noroeste 0 -- -- 16
2020-03-09 12:00:00 24.1 6 Sudoeste 11 Oeste 0 -- -- 20
2020-03-09 11:00:00 24.2 4 Sudoeste 11 Sudoeste 0 -- -- 19
2020-03-09 10:00:00 23.8 2 Oeste 8 Noroeste 0 -- -- 11
2020-03-09 09:00:00 21.3 5 Sudeste 18 Sudeste 0 -- -- 13
2020-03-09 08:00:00 18.7 9 Este 14 Este 0 -- -- 13
2020-03-09 07:00:00 19.1 12 Este 17 Este 0 -- -- 13
2020-03-09 06:00:00 18.5 6 Este 14 Sudeste 0 -- -- 14
2020-03-09 05:00:00 18.6 10 Sudeste 14 Sudeste 0 -- -- 14
2020-03-09 04:00:00 20.2 2 Norte 11 Nordeste 0 -- -- 13
2020-03-09 03:00:00 19.7 7 Nordeste 12 Este 0 -- -- 14
2020-03-09 02:00:00 19.1 8 Sudeste 11 Sudeste 0 -- -- 16
2020-03-09 01:00:00 19.9 5 Nordeste 14 Este 0 -- -- 15
2020-03-09 00:00:00 19.3 10 Nordeste 14 Este 0 -- -- 18